M I D A S
Marine Information and Data Acquisition System
Tripno 1886 of the Zeeleeuw from 2010-05-25 07:47:05 to 2010-05-25 14:29:09
Back to CruiseResearch ActivitiesStationsMapUnderway DataData graphs

EquipmentUnitsComments
TimeDGPSUTC
LatitudeDGPSDM.mWGS84
LongitudeDGPSDM.mWGS84
SpeedMeteo Stationm/sRelative wind speed
DirectionMeteo StationdegRelative wind direction
TemperatureMeteo Stationdeg CelciusAir temperature
PressureMeteo StationPaAtmospheric pressure
HumidityMeteo Station%Relative humidity
Missing or incorrect values are displayed as -999
Metereological data collected by the RV Zeeleeuw from 2010-05-25 07:35:30 to 2010-05-25 14:38:49
Time Latitude Longitude Speed Direction Temperature Pressure Humidity
2010-05-25 07:36 51°13.667 2°55.932 2.9 302 14.8 101230 39
2010-05-25 07:37 51°13.688 2°55.822 2 303 14.8 101230 38
2010-05-25 07:38 51°13.698 2°55.745 3.8 349 14.7 101220 39
2010-05-25 07:39 51°13.701 2°55.737 2 9 14.8 101220 42
2010-05-25 07:40 51°13.704 2°55.719 4.5 359 14.8 101230 39
2010-05-25 07:41 51°13.778 2°55.674 7.6 351 14.7 101210 42
2010-05-25 07:42 51°13.887 2°55.588 6.4 356 14.4 101220 39
2010-05-25 07:43 51°14.012 2°55.501 6.1 344 14.2 101220 41
2010-05-25 07:44 51°14.142 2°55.4 9.7 358 14 101210 39
2010-05-25 07:45 51°14.285 2°55.275 9 355 13.8 101220 40
2010-05-25 07:46 51°14.439 2°55.115 9.3 1 13.6 101200 40
2010-05-25 07:47 51°14.607 2°54.928 10.4 1 13.3 101190 40
2010-05-25 07:48 51°14.776 2°54.706 10.5 358 13.2 101190 40
2010-05-25 07:49 51°14.959 2°54.515 9.9 359 13 101200 40
2010-05-25 07:50 51°15.135 2°54.309 9.8 3 12.9 101200 41
2010-05-25 07:51 51°15.303 2°54.083 9.8 360 12.9 101200 42
2010-05-25 07:52 51°15.472 2°53.861 8.8 4 12.8 101200 40
2010-05-25 07:53 51°15.643 2°53.643 8.7 359 12.8 101200 42
2010-05-25 07:54 51°15.823 2°53.449 10.6 1 12.9 101210 40
2010-05-25 07:55 51°16.011 2°53.276 11.4 357 12.8 101220 40
2010-05-25 07:56 51°16.194 2°53.095 11.2 359 12.8 101210 41
2010-05-25 07:57 51°16.373 2°52.899 9.4 2 12.8 101220 41
2010-05-25 07:58 51°16.544 2°52.688 9.1 1 12.8 101220 41
2010-05-25 07:59 51°16.71 2°52.466 10.7 2 12.7 101220 39
2010-05-25 08:00 51°16.876 2°52.248 9.7 360 12.7 101230 41
2010-05-25 08:01 51°17.065 2°52.097 11.9 353 12.7 101220 39
2010-05-25 08:02 51°17.268 2°52.011 11.6 354 12.6 101220 41
2010-05-25 08:03 51°17.47 2°51.912 12.2 -999 12.6 101220 39
2010-05-25 08:04 51°17.667 2°51.783 12.9 357 12.6 101220 40
2010-05-25 08:05 51°17.87 2°51.687 11.2 354 12.6 101230 39
2010-05-25 08:06 51°18.079 2°51.626 13.3 353 12.6 101220 39
2010-05-25 08:07 51°18.29 2°51.588 12.4 349 12.7 101230 40
2010-05-25 08:08 51°18.501 2°51.556 13 350 12.7 101210 40
2010-05-25 08:09 51°18.698 2°51.526 11.7 351 12.6 101220 40
2010-05-25 08:10 51°18.892 2°51.496 11.4 348 12.7 101220 39
2010-05-25 08:11 51°19.086 2°51.467 12.2 349 12.7 101230 41
2010-05-25 08:12 51°19.282 2°51.442 12.4 351 12.6 101220 41
2010-05-25 08:13 51°19.48 2°51.418 13.3 350 12.6 101220 40
2010-05-25 08:14 51°19.678 2°51.394 13 350 12.5 101220 41
2010-05-25 08:15 51°19.874 2°51.368 10.9 350 12.3 101220 41
2010-05-25 08:16 51°20.069 2°51.343 12.7 349 12.3 101220 41
2010-05-25 08:17 51°20.263 2°51.32 12.9 351 12.2 101220 41
2010-05-25 08:18 51°20.458 2°51.294 14.7 352 12.2 101220 40
2010-05-25 08:19 51°20.653 2°51.268 11 350 12.2 101230 41
2010-05-25 08:20 51°20.85 2°51.242 14.1 350 12.1 101230 40
2010-05-25 08:21 51°21.047 2°51.216 11.6 352 12.1 101220 41
2010-05-25 08:22 51°21.245 2°51.19 11.7 352 12 101220 41
2010-05-25 08:23 51°21.443 2°51.159 12.3 351 12 101210 40
2010-05-25 08:24 51°21.641 2°51.132 12.7 352 12 101220 41
2010-05-25 08:25 51°21.839 2°51.108 12.2 351 11.9 101240 40
2010-05-25 08:26 51°22.038 2°51.077 11.5 350 11.9 101220 40
2010-05-25 08:27 51°22.236 2°51.046 12.9 350 11.9 101230 40
2010-05-25 08:28 51°22.436 2°51.015 12.9 351 11.9 101230 40
2010-05-25 08:29 51°22.637 2°50.986 11.6 348 11.8 101230 41
2010-05-25 08:30 51°22.84 2°50.966 11.3 353 11.8 101230 41
2010-05-25 08:31 51°23.04 2°50.942 10 353 11.8 101230 40
2010-05-25 08:32 51°23.237 2°50.92 13.4 353 11.8 101230 41
2010-05-25 08:33 51°23.432 2°50.896 13 351 11.7 101220 41
2010-05-25 08:34 51°23.627 2°50.871 13.1 353 11.7 101230 39
2010-05-25 08:35 51°23.823 2°50.845 11.4 351 11.7 101240 40
2010-05-25 08:36 51°24.021 2°50.818 10.6 351 11.7 101240 39
2010-05-25 08:37 51°24.219 2°50.791 11.5 349 11.7 101240 41
2010-05-25 08:38 51°24.418 2°50.765 12.7 353 11.7 101240 41
2010-05-25 08:39 51°24.616 2°50.737 11.6 353 11.7 101240 41
2010-05-25 08:40 51°24.816 2°50.709 12.3 354 11.7 101240 41
2010-05-25 08:41 51°25.017 2°50.686 11.9 352 11.7 101240 40
2010-05-25 08:42 51°25.219 2°50.665 13.4 352 11.6 101230 41
2010-05-25 08:43 51°25.421 2°50.645 13.1 352 11.6 101240 41
2010-05-25 08:44 51°25.623 2°50.628 11.3 351 11.6 101230 40
2010-05-25 08:45 51°25.826 2°50.611 13.5 353 11.6 101230 41
2010-05-25 08:46 51°26.03 2°50.597 13.4 350 11.6 101240 39
2010-05-25 08:47 51°26.234 2°50.574 12.7 350 11.6 101240 39
2010-05-25 08:48 51°26.435 2°50.548 12.8 352 11.6 101240 39
2010-05-25 08:49 51°26.636 2°50.523 11.4 351 11.6 101230 40
2010-05-25 08:50 51°26.836 2°50.495 12.5 352 11.6 101250 41
2010-05-25 08:51 51°27.036 2°50.471 11.8 351 11.6 101240 41
2010-05-25 08:52 51°27.236 2°50.443 13.1 352 11.6 101250 41
2010-05-25 08:53 51°27.437 2°50.416 12.4 352 11.5 101240 41
2010-05-25 08:54 51°27.64 2°50.387 11.8 351 11.5 101250 41
2010-05-25 08:55 51°27.844 2°50.359 11.2 350 11.5 101250 41
2010-05-25 08:56 51°28.05 2°50.335 11.8 348 11.5 101250 39
2010-05-25 08:57 51°28.258 2°50.329 12.7 350 11.5 101250 40
2010-05-25 08:58 51°28.466 2°50.327 12.4 352 11.5 101250 40
2010-05-25 08:59 51°28.672 2°50.336 12 353 11.5 101250 39
2010-05-25 09:00 51°28.878 2°50.341 11.3 349 11.5 101250 41
2010-05-25 09:01 51°29.084 2°50.348 12.9 350 11.5 101240 39
2010-05-25 09:02 51°29.286 2°50.419 12.9 342 11.5 101250 40
2010-05-25 09:03 51°29.472 2°50.582 13.1 335 11.5 101250 39
2010-05-25 09:04 51°29.597 2°50.861 12.6 327 11.6 101260 40
2010-05-25 09:05 51°29.66 2°51.194 13.2 327 11.6 101250 40
2010-05-25 09:06 51°29.741 2°51.515 12.6 329 11.6 101250 39
2010-05-25 09:07 51°29.843 2°51.821 13.7 330 11.6 101250 40
2010-05-25 09:08 51°29.936 2°52.134 12.2 330 11.6 101240 39
2010-05-25 09:09 51°30.023 2°52.453 12.6 328 11.6 101240 40
2010-05-25 09:10 51°30.11 2°52.77 13 329 11.6 101240 41
2010-05-25 09:11 51°30.18 2°53.063 12.7 329 11.7 101250 39
2010-05-25 09:12 51°30.239 2°53.35 12.9 326 11.7 101250 41
2010-05-25 09:13 51°30.304 2°53.648 11.4 327 11.7 101250 40
2010-05-25 09:14 51°30.373 2°53.961 11.9 326 11.7 101240 39
2010-05-25 09:15 51°30.44 2°54.265 11.9 326 11.7 101250 41
2010-05-25 09:16 51°30.504 2°54.56 12.5 304 11.7 101260 39
2010-05-25 09:17 51°30.57 2°54.855 11.9 328 11.7 101260 39
2010-05-25 09:18 51°30.636 2°55.149 11.9 326 11.7 101260 40
2010-05-25 09:19 51°30.703 2°55.443 12.3 328 11.7 101250 40
2010-05-25 09:20 51°30.771 2°55.738 12.7 301 11.7 101260 39
2010-05-25 09:21 51°30.84 2°56.034 12 327 11.7 101260 38
2010-05-25 09:22 51°30.908 2°56.33 12.2 303 11.7 101250 39
2010-05-25 09:23 51°30.978 2°56.625 11 328 11.7 101260 39
2010-05-25 09:24 51°31.061 2°56.911 11.5 328 11.8 101260 40
2010-05-25 09:25 51°31.161 2°57.182 12.3 330 11.8 101250 39
2010-05-25 09:26 51°31.296 2°57.408 11.6 335 11.8 101260 38
2010-05-25 09:27 51°31.433 2°57.629 12.5 336 11.8 101250 40
2010-05-25 09:28 51°31.568 2°57.854 11.3 332 11.8 101260 38
2010-05-25 09:29 51°31.703 2°58.08 10.6 333 11.8 101270 38
2010-05-25 09:30 51°31.837 2°58.307 11.9 334 11.8 101260 38
2010-05-25 09:31 51°31.971 2°58.533 12.1 332 11.8 101270 38
2010-05-25 09:32 51°32.106 2°58.76 13 332 11.8 101260 39
2010-05-25 09:33 51°32.241 2°58.989 11.8 332 11.8 101260 37
2010-05-25 09:34 51°32.376 2°59.219 12.1 332 11.8 101260 39
2010-05-25 09:35 51°32.511 2°59.448 12 331 11.8 101260 38
2010-05-25 09:36 51°32.646 2°59.675 12.2 332 11.7 101260 38
2010-05-25 09:37 51°32.808 2°59.806 10.1 346 11.7 101240 39
2010-05-25 09:38 51°32.958 2°59.697 8.2 7 11.7 101260 37
2010-05-25 09:39 51°33.041 2°59.446 8 10 11.7 101260 37
2010-05-25 09:40 51°33.133 2°59.187 8.2 10 11.6 101260 37
2010-05-25 09:41 51°33.233 2°58.928 11.1 9 11.6 101270 38
2010-05-25 09:42 51°33.339 2°58.651 7.5 5 11.6 101260 37
2010-05-25 09:43 51°33.447 2°58.374 8.2 8 11.6 101260 37
2010-05-25 09:44 51°33.554 2°58.095 8.3 8 11.6 101260 38
2010-05-25 09:45 51°33.664 2°57.816 9.7 8 11.6 101260 37
2010-05-25 09:46 51°33.773 2°57.534 8.3 8 11.6 101270 37
2010-05-25 09:47 51°33.884 2°57.252 6.8 7 11.6 101260 39
2010-05-25 09:48 51°33.996 2°56.967 6.7 4 11.5 101260 38
2010-05-25 09:49 51°34.106 2°56.686 9.3 10 11.6 101260 39
2010-05-25 09:50 51°34.213 2°56.418 9.7 11 11.5 101260 37
2010-05-25 09:51 51°34.32 2°56.152 8.7 9 11.5 101260 38
2010-05-25 09:52 51°34.404 2°55.875 5.1 26 11.5 101260 37
2010-05-25 09:53 51°34.365 2°55.585 1.8 35 11.5 101280 36
2010-05-25 09:54 51°34.25 2°55.341 2 53 11.6 101280 38
2010-05-25 09:55 51°34.118 2°55.12 0.8 56 11.8 101280 38
2010-05-25 09:56 51°33.988 2°54.896 2.4 53 11.8 101280 41
2010-05-25 09:57 51°33.859 2°54.671 1.9 58 11.9 101280 40
2010-05-25 09:58 51°33.728 2°54.448 1.2 53 12.1 101280 37
2010-05-25 09:59 51°33.597 2°54.222 1.9 51 12.2 101270 39
2010-05-25 10:00 51°33.47 2°53.992 1.5 54 12.3 101280 37
2010-05-25 10:01 51°33.354 2°53.75 2.8 53 12.4 101270 40
2010-05-25 10:02 51°33.242 2°53.5 2.2 50 12.2 101270 38
2010-05-25 10:03 51°33.132 2°53.247 2.5 53 12.1 101270 37
2010-05-25 10:04 51°33.026 2°52.993 2.3 53 12 101270 40
2010-05-25 10:05 51°32.916 2°52.74 2.4 45 11.9 101280 39
2010-05-25 10:06 51°32.815 2°52.482 3.4 51 11.9 101270 40
2010-05-25 10:07 51°32.715 2°52.219 2.3 58 11.8 101270 37
2010-05-25 10:08 51°32.614 2°51.959 1.7 53 11.8 101270 39
2010-05-25 10:09 51°32.515 2°51.7 2.8 51 11.8 101270 37
2010-05-25 10:10 51°32.414 2°51.442 3.4 51 11.8 101270 36
2010-05-25 10:11 51°32.313 2°51.187 3.2 60 11.8 101270 41
2010-05-25 10:12 51°32.212 2°50.931 1.3 45 11.7 101270 40
2010-05-25 10:13 51°32.111 2°50.676 2.6 42 11.8 101270 38
2010-05-25 10:14 51°32.011 2°50.421 2.3 58 11.8 101280 37
2010-05-25 10:15 51°31.909 2°50.17 2.7 53 11.8 101280 36
2010-05-25 10:16 51°31.809 2°49.918 2.8 53 11.8 101270 37
2010-05-25 10:17 51°31.712 2°49.665 2.8 41 11.8 101280 37
2010-05-25 10:18 51°31.61 2°49.415 2.8 53 11.8 101280 37
2010-05-25 10:19 51°31.512 2°49.164 2.9 42 11.7 101270 38
2010-05-25 10:20 51°31.411 2°48.914 3 58 11.7 101280 39
2010-05-25 10:21 51°31.313 2°48.66 2.1 60 11.7 101270 37
2010-05-25 10:22 51°31.213 2°48.409 1.3 41 11.7 101280 37
2010-05-25 10:23 51°31.111 2°48.158 1.8 50 11.7 101280 38
2010-05-25 10:24 51°31.011 2°47.905 2.8 53 11.8 101280 37
2010-05-25 10:25 51°30.91 2°47.651 1.9 56 11.8 101280 37
2010-05-25 10:26 51°30.836 2°47.378 3.3 44 11.8 101280 37
2010-05-25 10:27 51°30.847 2°47.083 6 12 11.8 101280 37
2010-05-25 10:28 51°30.967 2°46.831 6.7 5 11.7 101250 37
2010-05-25 10:29 51°31.154 2°46.697 11.5 356 11.7 101240 38
2010-05-25 10:30 51°31.366 2°46.698 12.5 347 11.6 101220 37
2010-05-25 10:31 51°31.571 2°46.762 11 346 11.5 101230 38
2010-05-25 10:32 51°31.769 2°46.803 12.2 347 11.5 101230 38
2010-05-25 10:33 51°31.968 2°46.827 11.2 349 11.5 101220 37
2010-05-25 10:34 51°32.167 2°46.841 12.8 348 11.5 101230 37
2010-05-25 10:35 51°32.368 2°46.856 14.5 347 11.4 101220 37
2010-05-25 10:36 51°32.569 2°46.874 13 349 11.4 101230 38
2010-05-25 10:37 51°32.769 2°46.889 12.3 347 11.4 101240 37
2010-05-25 10:38 51°32.969 2°46.906 13 349 11.4 101240 38
2010-05-25 10:39 51°33.169 2°46.923 12.5 348 11.4 101240 37
2010-05-25 10:40 51°33.369 2°46.942 13.1 346 11.4 101240 37
2010-05-25 10:41 51°33.565 2°46.961 13.2 346 11.4 101240 38
2010-05-25 10:42 51°33.762 2°46.975 12.7 346 11.3 101250 38
2010-05-25 10:43 51°33.96 2°46.991 15.1 348 11.3 101240 39
2010-05-25 10:44 51°34.155 2°47.006 14 348 11.3 101230 39
2010-05-25 10:45 51°34.351 2°47.023 14.3 349 11.2 101240 38
2010-05-25 10:46 51°34.548 2°47.036 14.2 349 11.2 101250 39
2010-05-25 10:47 51°34.746 2°47.047 13.8 349 11.2 101240 39
2010-05-25 10:48 51°34.946 2°47.059 12.7 347 11.2 101250 39
2010-05-25 10:49 51°35.146 2°47.073 14.2 348 11.1 101230 39
2010-05-25 10:50 51°35.346 2°47.097 13.7 342 11.1 101230 39
2010-05-25 10:51 51°35.533 2°47.213 13.5 338 11.1 101240 39
2010-05-25 10:52 51°35.71 2°47.369 13 337 11.2 101260 39
2010-05-25 10:53 51°35.888 2°47.508 12.5 340 11.2 101250 39
2010-05-25 10:54 51°36.065 2°47.641 12.2 339 11.3 101250 38
2010-05-25 10:55 51°36.24 2°47.776 14 339 11.3 101250 38
2010-05-25 10:56 51°36.416 2°47.909 13.4 336 11.3 101250 39
2010-05-25 10:57 51°36.591 2°48.041 13 339 11.3 101260 39
2010-05-25 10:58 51°36.767 2°48.172 13.8 339 11.3 101250 38
2010-05-25 10:59 51°36.943 2°48.304 13.8 339 11.3 101260 39
2010-05-25 11:00 51°37.121 2°48.435 12.3 340 11.3 101260 39
2010-05-25 11:01 51°37.297 2°48.565 15.3 340 11.3 101260 38
2010-05-25 11:02 51°37.472 2°48.701 13.7 340 11.3 101260 39
2010-05-25 11:03 51°37.647 2°48.833 14.4 343 11.4 101260 38
2010-05-25 11:04 51°37.823 2°48.964 13.6 340 11.4 101250 39
2010-05-25 11:05 51°37.998 2°49.098 14.1 339 11.4 101250 38
2010-05-25 11:06 51°38.172 2°49.23 13.2 340 11.4 101250 39
2010-05-25 11:07 51°38.347 2°49.361 11.4 341 11.4 101260 39
2010-05-25 11:08 51°38.522 2°49.491 13.7 338 11.4 101270 39
2010-05-25 11:09 51°38.697 2°49.622 14 338 11.4 101260 38
2010-05-25 11:10 51°38.872 2°49.75 13.5 339 11.4 101260 39
2010-05-25 11:11 51°39.05 2°49.877 12.8 339 11.4 101250 39
2010-05-25 11:12 51°39.227 2°50.006 13.5 339 11.3 101260 39
2010-05-25 11:13 51°39.404 2°50.132 12.2 340 11.3 101250 39
2010-05-25 11:14 51°39.577 2°50.275 13.3 337 11.3 101260 39
2010-05-25 11:15 51°39.742 2°50.441 12.6 337 11.3 101260 38
2010-05-25 11:16 51°39.908 2°50.605 13.2 336 11.3 101260 38
2010-05-25 11:17 51°40.053 2°50.807 14.7 329 11.3 101280 38
2010-05-25 11:18 51°40.165 2°51.059 14.2 305 11.2 101270 38
2010-05-25 11:19 51°40.181 2°51.349 13.3 306 11.3 101250 38
2010-05-25 11:20 51°40.105 2°51.598 10.5 304 11.2 101270 38
2010-05-25 11:21 51°39.985 2°51.795 11.1 306 11.2 101280 38
2010-05-25 11:22 51°39.86 2°51.983 10.4 303 11.3 101270 39
2010-05-25 11:23 51°39.737 2°52.176 8.9 305 11.3 101280 37
2010-05-25 11:24 51°39.616 2°52.373 10.5 304 11.4 101270 38
2010-05-25 11:25 51°39.494 2°52.57 11.7 307 11.4 101280 37
2010-05-25 11:26 51°39.369 2°52.77 9.9 306 11.4 101270 37
2010-05-25 11:27 51°39.236 2°52.98 10 305 11.4 101260 39
2010-05-25 11:28 51°39.1 2°53.195 9.9 307 11.4 101270 39
2010-05-25 11:29 51°38.965 2°53.41 9.6 302 11.4 101260 39
2010-05-25 11:30 51°38.83 2°53.63 10.7 303 11.4 101260 39
2010-05-25 11:31 51°38.696 2°53.848 10.9 307 11.4 101270 37
2010-05-25 11:32 51°38.561 2°54.067 9.6 306 11.4 101250 38
2010-05-25 11:33 51°38.424 2°54.283 10.2 302 11.4 101260 37
2010-05-25 11:34 51°38.286 2°54.501 12 305 11.5 101260 39
2010-05-25 11:35 51°38.147 2°54.717 9.9 305 11.5 101260 37
2010-05-25 11:36 51°38.006 2°54.929 10.7 301 11.5 101260 37
2010-05-25 11:37 51°37.844 2°55.08 9.8 307 11.5 101260 39
2010-05-25 11:38 51°37.663 2°55.107 4.7 306 11.5 101280 36
2010-05-25 11:39 51°37.486 2°55.064 4.6 52 11.5 101280 39
2010-05-25 11:40 51°37.355 2°54.888 3.8 54 11.5 101280 36
2010-05-25 11:41 51°37.27 2°54.631 5 44 11.5 101280 39
2010-05-25 11:42 51°37.171 2°54.384 2.3 42 11.4 101280 38
2010-05-25 11:43 51°37.061 2°54.15 2.3 53 11.4 101280 39
2010-05-25 11:44 51°36.952 2°53.919 3 59 11.5 101280 39
2010-05-25 11:45 51°36.843 2°53.692 3.3 52 11.5 101280 37
2010-05-25 11:46 51°36.732 2°53.459 1.6 60 11.5 101280 36
2010-05-25 11:47 51°36.62 2°53.23 0.6 58 11.8 101280 41
2010-05-25 11:48 51°36.509 2°53.003 3.2 52 11.9 101290 36
2010-05-25 11:49 51°36.4 2°52.773 1.8 53 11.9 101290 40
2010-05-25 11:50 51°36.289 2°52.544 2.2 55 11.9 101280 38
2010-05-25 11:51 51°36.178 2°52.314 1.8 54 11.9 101290 36
2010-05-25 11:52 51°36.072 2°52.092 1.8 55 12.2 101280 37
2010-05-25 11:53 51°35.964 2°51.862 1.7 54 12.4 101280 36
2010-05-25 11:54 51°35.855 2°51.634 2.4 52 12.6 101280 40
2010-05-25 11:55 51°35.748 2°51.402 3.9 58 12.6 101280 37
2010-05-25 11:56 51°35.636 2°51.17 2.3 52 12.6 101270 36
2010-05-25 11:57 51°35.508 2°50.978 4.9 56 12.5 101270 40
2010-05-25 11:58 51°35.346 2°50.846 4.9 308 12.4 101260 38
2010-05-25 11:59 51°35.172 2°50.846 8.7 305 12.1 101250 37
2010-05-25 12:00 51°35.012 2°51 10.1 306 12.1 101220 39
2010-05-25 12:01 51°34.866 2°51.21 11.2 306 12.1 101220 39
2010-05-25 12:02 51°34.715 2°51.415 10.9 306 12 101220 39
2010-05-25 12:03 51°34.561 2°51.613 10.9 303 12 101210 38
2010-05-25 12:04 51°34.408 2°51.807 10.1 307 11.9 101220 39
2010-05-25 12:05 51°34.258 2°52.008 12.1 306 11.9 101220 38
2010-05-25 12:06 51°34.109 2°52.205 10.2 302 11.9 101220 38
2010-05-25 12:07 51°33.958 2°52.413 11.7 305 11.9 101210 37
2010-05-25 12:08 51°33.828 2°52.641 10.3 308 11.9 101220 39
2010-05-25 12:09 51°33.745 2°52.937 10.6 305 11.9 101210 38
2010-05-25 12:10 51°33.75 2°53.265 14 307 11.8 101200 38
2010-05-25 12:11 51°33.842 2°53.567 14.8 328 11.8 101200 39
2010-05-25 12:12 51°33.954 2°53.831 13.6 330 11.8 101220 38
2010-05-25 12:13 51°34.066 2°54.089 11.6 328 11.7 101220 39
2010-05-25 12:14 51°34.183 2°54.344 13.2 328 11.7 101220 39
2010-05-25 12:15 51°34.297 2°54.595 13.9 328 11.7 101220 39
2010-05-25 12:16 51°34.413 2°54.855 13.9 329 11.6 101220 38
2010-05-25 12:17 51°34.527 2°55.112 13.1 326 11.7 101220 38
2010-05-25 12:18 51°34.641 2°55.371 11.4 326 11.7 101240 38
2010-05-25 12:19 51°34.752 2°55.625 11.8 328 11.6 101240 38
2010-05-25 12:20 51°34.865 2°55.889 13.2 301 11.6 101220 38
2010-05-25 12:21 51°34.977 2°56.146 14.5 328 11.6 101230 37
2010-05-25 12:22 51°35.09 2°56.403 15.3 325 11.7 101230 39
2010-05-25 12:23 51°35.202 2°56.659 15.8 326 11.6 101240 38
2010-05-25 12:24 51°35.312 2°56.915 15.2 303 11.6 101230 38
2010-05-25 12:25 51°35.422 2°57.166 13.8 327 11.6 101230 39
2010-05-25 12:26 51°35.529 2°57.413 14.4 328 11.6 101220 39
2010-05-25 12:27 51°35.638 2°57.671 14.3 325 11.6 101220 39
2010-05-25 12:28 51°35.732 2°57.933 14.3 306 11.6 101240 38
2010-05-25 12:29 51°35.763 2°58.224 14.2 303 11.6 101230 37
2010-05-25 12:30 51°35.734 2°58.505 13.1 307 11.6 101240 38
2010-05-25 12:31 51°35.622 2°58.712 9.6 306 11.6 101240 39
2010-05-25 12:32 51°35.468 2°58.828 8 306 11.7 101250 38
2010-05-25 12:33 51°35.303 2°58.9 9.1 308 11.7 101260 39
2010-05-25 12:34 51°35.143 2°58.991 8.9 309 11.8 101260 39
2010-05-25 12:35 51°34.982 2°59.081 8.6 306 11.8 101260 37
2010-05-25 12:36 51°34.818 2°59.168 9.5 308 11.9 101250 39
2010-05-25 12:37 51°34.656 2°59.255 6.3 304 11.9 101250 38
2010-05-25 12:38 51°34.493 2°59.337 7.6 304 11.9 101250 37
2010-05-25 12:39 51°34.331 2°59.419 8.6 309 12 101250 40
2010-05-25 12:40 51°34.161 2°59.51 7.7 306 12 101250 39
2010-05-25 12:41 51°33.98 2°59.601 8.4 306 12 101260 38
2010-05-25 12:42 51°33.795 2°59.692 7.8 306 12 101250 38
2010-05-25 12:43 51°33.61 2°59.764 7.3 303 12 101250 38
2010-05-25 12:44 51°33.426 2°59.778 5.8 302 12 101260 38
2010-05-25 12:45 51°33.242 2°59.782 5.5 306 11.9 101250 38
2010-05-25 12:46 51°33.054 2°59.787 5.6 308 11.9 101260 39
2010-05-25 12:47 51°32.867 2°59.796 5.3 301 11.8 101250 38
2010-05-25 12:48 51°32.677 2°59.805 4.9 305 11.8 101250 40
2010-05-25 12:49 51°32.487 2°59.813 6.2 305 11.8 101250 40
2010-05-25 12:50 51°32.302 2°59.808 3.7 304 11.8 101260 39
2010-05-25 12:51 51°32.116 2°59.752 4.6 57 11.8 101260 37
2010-05-25 12:52 51°31.928 2°59.677 5.2 61 11.8 101250 41
2010-05-25 12:53 51°31.751 2°59.589 3.1 309 11.8 101250 41
2010-05-25 12:54 51°31.569 2°59.492 6.9 54 11.7 101250 37
2010-05-25 12:55 51°31.394 2°59.371 4.8 53 11.7 101240 37
2010-05-25 12:56 51°31.218 2°59.223 3.4 58 11.7 101240 37
2010-05-25 12:57 51°31.043 2°59.086 5.1 57 11.7 101240 41
2010-05-25 12:58 51°30.863 2°58.964 4.4 55 11.7 101240 41
2010-05-25 12:59 51°30.675 2°58.874 4 304 11.7 101240 39
2010-05-25 13:00 51°30.492 2°58.788 4.5 309 11.7 101230 38
2010-05-25 13:01 51°30.298 2°58.708 3.3 300 11.7 101230 38
2010-05-25 13:02 51°30.105 2°58.647 5 302 11.7 101230 38
2010-05-25 13:03 51°29.914 2°58.583 5.7 62 11.7 101230 37
2010-05-25 13:04 51°29.727 2°58.508 5 60 11.7 101240 37
2010-05-25 13:05 51°29.541 2°58.428 4.6 51 11.7 101230 37
2010-05-25 13:06 51°29.355 2°58.336 4.7 310 11.7 101230 37
2010-05-25 13:07 51°29.167 2°58.248 3.1 307 11.8 101240 37
2010-05-25 13:08 51°28.983 2°58.156 3.8 52 11.8 101240 38
2010-05-25 13:09 51°28.798 2°58.074 6.1 57 11.8 101240 38
2010-05-25 13:10 51°28.61 2°57.98 4.8 53 11.7 101230 40
2010-05-25 13:11 51°28.422 2°57.892 4.1 308 11.8 101230 41
2010-05-25 13:12 51°28.231 2°57.791 3.1 306 11.8 101220 40
2010-05-25 13:13 51°28.039 2°57.692 5.2 58 11.8 101230 40
2010-05-25 13:14 51°27.849 2°57.598 3.6 52 11.9 101230 37
2010-05-25 13:15 51°27.662 2°57.5 4.6 53 11.9 101230 37
2010-05-25 13:16 51°27.467 2°57.4 5.1 303 11.9 101220 37
2010-05-25 13:17 51°27.275 2°57.298 5.8 59 11.8 101220 38
2010-05-25 13:18 51°27.081 2°57.199 4.4 302 11.8 101220 38
2010-05-25 13:19 51°26.888 2°57.095 5.9 57 11.9 101220 37
2010-05-25 13:20 51°26.697 2°56.994 5.1 52 11.9 101220 37
2010-05-25 13:21 51°26.507 2°56.893 4.2 54 11.9 101220 40
2010-05-25 13:22 51°26.318 2°56.788 6.2 57 12 101210 40
2010-05-25 13:23 51°26.132 2°56.689 3.1 309 11.9 101220 37
2010-05-25 13:24 51°25.945 2°56.592 4.2 303 11.9 101210 40
2010-05-25 13:25 51°25.756 2°56.486 5.2 57 12 101210 39
2010-05-25 13:26 51°25.568 2°56.377 3.2 312 12 101210 41
2010-05-25 13:27 51°25.381 2°56.264 5.2 51 12.1 101210 41
2010-05-25 13:28 51°25.185 2°56.16 5.4 64 12.1 101210 34
2010-05-25 13:29 51°24.99 2°56.054 2.5 303 12 101210 37
2010-05-25 13:30 51°24.794 2°55.968 5.1 300 12.1 101200 38
2010-05-25 13:31 51°24.602 2°55.908 4.5 311 12.1 101190 41
2010-05-25 13:32 51°24.4 2°55.848 5.1 303 12.1 101190 37
2010-05-25 13:33 51°24.202 2°55.783 5.6 60 12.1 101190 40
2010-05-25 13:34 51°24 2°55.722 5.7 302 12.2 101190 39
2010-05-25 13:35 51°23.801 2°55.655 3.5 311 12.2 101190 40
2010-05-25 13:36 51°23.598 2°55.572 5.9 56 12.2 101180 40
2010-05-25 13:37 51°9.973 2°58.082 2.8 285 14 101250 40
2010-05-25 13:37 51°23.357 2°55.464 5.1 265 12.2 101190 37
2010-05-25 13:38 51°23.158 2°55.377 5.7 265 12.3 101180 37
2010-05-25 13:39 51°22.953 2°55.283 4 266 12.3 101190 40
2010-05-25 13:40 51°22.756 2°55.169 3.9 269 12.3 101190 38
2010-05-25 13:41 51°22.561 2°55.045 3.4 30 12.4 101190 37
2010-05-25 13:42 51°22.365 2°54.922 5.3 269 12.4 101190 38
2010-05-25 13:43 51°22.172 2°54.799 4 266 12.4 101190 40
2010-05-25 13:44 51°21.979 2°54.679 4.8 20 12.5 101190 40
2010-05-25 13:45 51°21.785 2°54.563 4.4 269 12.5 101190 41
2010-05-25 13:46 51°21.591 2°54.451 4.5 30 12.5 101190 38
2010-05-25 13:47 51°21.397 2°54.342 6.1 31 12.4 101180 37
2010-05-25 13:48 51°21.199 2°54.23 5.1 27 12.5 101180 38
2010-05-25 13:49 51°21.001 2°54.117 4.4 269 12.5 101180 37
2010-05-25 13:50 51°20.802 2°54 3.8 268 12.5 101180 38
2010-05-25 13:51 51°20.602 2°53.882 5.2 265 12.6 101170 39
2010-05-25 13:52 51°20.4 2°53.789 4.1 265 12.6 101170 37
2010-05-25 13:53 51°20.196 2°53.694 5.5 266 12.6 101160 41
2010-05-25 13:54 51°19.99 2°53.597 2.6 267 12.7 101170 37
2010-05-25 13:55 51°19.789 2°53.497 5.8 270 12.7 101170 38
2010-05-25 13:56 51°19.599 2°53.399 5.8 25 12.7 101180 40
2010-05-25 13:57 51°19.413 2°53.303 5.3 33 12.8 101170 40
2010-05-25 13:58 51°19.229 2°53.204 5.3 337 12.8 101170 37
2010-05-25 13:59 51°19.044 2°53.105 6 269 12.8 101170 38
2010-05-25 14:00 51°18.858 2°53.005 5.3 268 12.8 101170 39
2010-05-25 14:01 51°18.671 2°52.896 4 267 12.8 101170 41
2010-05-25 14:02 51°18.489 2°52.786 4.1 270 12.9 101170 41
2010-05-25 14:03 51°18.304 2°52.676 5.4 269 12.9 101170 39
2010-05-25 14:04 51°18.121 2°52.564 5.6 25 12.9 101170 39
2010-05-25 14:05 51°17.937 2°52.458 3.9 23 12.9 101170 42
2010-05-25 14:06 51°17.752 2°52.358 5 270 13 101170 37
2010-05-25 14:07 51°17.564 2°52.272 3 268 12.9 101170 40
2010-05-25 14:08 51°17.376 2°52.237 5.1 263 13 101160 41
2010-05-25 14:09 51°17.19 2°52.273 7.7 256 13 101160 38
2010-05-25 14:10 51°17.01 2°52.345 9.3 250 13.1 101150 40
2010-05-25 14:11 51°16.848 2°52.484 10.5 253 13.2 101120 38
2010-05-25 14:12 51°16.691 2°52.639 10.3 21 13.2 101140 40
2010-05-25 14:13 51°16.533 2°52.792 10.3 247 13.3 101140 40
2010-05-25 14:14 51°16.378 2°52.955 11.2 246 13.3 101130 39
2010-05-25 14:15 51°16.225 2°53.121 10.8 24 13.3 101130 39
2010-05-25 14:16 51°16.059 2°53.254 8.4 23 13.4 101160 40
2010-05-25 14:17 51°15.897 2°53.404 10 20 13.4 101140 40
2010-05-25 14:18 51°15.735 2°53.557 10 249 13.4 101130 38
2010-05-25 14:19 51°15.574 2°53.713 10.2 22 13.4 101140 39
2010-05-25 14:20 51°15.429 2°53.893 12.3 24 13.5 101130 38
2010-05-25 14:21 51°15.282 2°54.071 9.9 250 13.5 101110 40
2010-05-25 14:22 51°15.135 2°54.252 12.3 20 13.5 101110 40
2010-05-25 14:23 51°14.985 2°54.43 10.6 249 13.5 101120 38
2010-05-25 14:24 51°14.829 2°54.604 10.8 245 13.5 101120 38
2010-05-25 14:25 51°14.679 2°54.786 10.6 21 13.5 101110 40
2010-05-25 14:26 51°14.515 2°54.947 11.1 246 13.5 101120 40
2010-05-25 14:27 51°14.367 2°55.125 11.6 250 13.5 101100 39
2010-05-25 14:28 51°14.235 2°55.297 10.5 251 13.6 101120 39
2010-05-25 14:29 51°14.127 2°55.405 4.8 265 13.7 101140 39
2010-05-25 14:30 51°14.023 2°55.487 5.2 257 13.8 101150 40
2010-05-25 14:31 51°13.926 2°55.558 4.5 266 13.9 101150 41
2010-05-25 14:32 51°13.826 2°55.63 4.5 259 14 101150 41
2010-05-25 14:33 51°13.747 2°55.727 4 242 14 101150 40
2010-05-25 14:34 51°13.7 2°55.822 5.8 247 14.1 101150 39
2010-05-25 14:35 51°13.671 2°55.913 6.6 242 14.3 101160 39
2010-05-25 14:36 51°13.667 2°55.944 6.6 252 14.4 101140 42
2010-05-25 14:37 51°13.666 2°55.949 7.2 265 14.6 101140 40